Regional Weather Roundup
Issued by NWS

Home | Current Version | Previous Version | Graphics & Text | Print | Product List | Glossary On
Versions: 1 2 3 4 5 6 7 8 9 10 11 12 13 14 15 16 17 18 19 20 21 22 23 24 25 26 27 28 29 30 31 32 33 34 35 36 37 38 39 40 41 42 43 44 45 46 47 48 49 50
000
ASUS45 KPSR 302010
RWRAZ

ARIZONA REGIONAL HOURLY WEATHER ROUNDUP
NATIONAL WEATHER SERVICE PHOENIX AZ
100 PM MST FRI JAN 30 2015

NOTE: FAIR INDICATES FEW OR NO CLOUDS BELOW 12,000 FEET WITH NO
SIGNIFICANT WEATHER AND/OR OBSTRUCTIONS TO VISIBILITY.

AZZ001>003-036-302100-
NORTHWEST ARIZONA

CITY           SKY/WX    TMP DP  RH WIND       PRES   REMARKS
BULLHEAD CITY  PTSUNNY   57  50  77 N15       29.89F
KINGMAN        CLOUDY    48  45  89 N7        29.87F
$$

AZZ004>008-015-016-018-302100-
NORTH CENTRAL ARIZONA

CITY           SKY/WX    TMP DP  RH WIND       PRES   REMARKS
GRAND CANYON   LGT RAIN  39  37  92 E8G18     29.95F FOG     WCI  33
PRESCOTT       LGT RAIN  47  45  93 SE13      29.90F FOG
FLAGSTAFF      LGT RAIN  39  37  92 E5        29.95F FOG
PAYSON         LGT RAIN  45  45 100 VRB5      29.97F
$$

AZZ009>014-017-302100-
NORTHEAST ARIZONA

CITY           SKY/WX    TMP DP  RH WIND       PRES   REMARKS
WINSLOW        LGT RAIN  48  44  86 E15       29.94F
SAINT JOHNS    CLOUDY    48  42  80 E12       29.96F
WINDOW ROCK    LGT SNOW  35  32  88 CALM      30.05F VSB 3/4
SHOW LOW       CLOUDY    45  37  76 S10       29.98F
$$

AZZ023-302100-
GREATER PHOENIX AREA

CITY           SKY/WX    TMP DP  RH WIND       PRES   REMARKS
PHOENIX        LGT RAIN  57  56  96 E7        29.86F FOG
BUCKEYE          N/A     57  57 100 SW8       29.87F
GLENDALE       LGT RAIN  57  57 100 VRB5      29.88F
LUKE AFB       LGT RAIN  57  55  94 S7        29.86F
DEER VALLEY    LGT RAIN  55  54  94 SE3       29.86F FOG
SCOTTSDALE     LGT RAIN  55  54  94 SE5       29.89F FOG
MESA-FALCON    CLOUDY    55  55 100 NE6       29.86F
CHANDLER       LGT RAIN  59  59 100 E6        29.87F
$$

AZZ027-028-302100-
SOUTHWEST MARICOPA COUNTY AND PINAL COUNTY

CITY           SKY/WX    TMP DP  RH WIND       PRES   REMARKS
CASA GRANDE    CLOUDY    57  55  94 CALM      29.87F
GILA BEND      CLOUDY    59  57  94 W6        29.87F
$$

AZZ503-504-507>509-302100-
SOUTHEAST ARIZONA

CITY           SKY/WX    TMP DP  RH WIND       PRES   REMARKS
TUCSON         LGT RAIN  57  53  86 E12       29.90F
DAVIS-MONTHAN  LGT RAIN  56  55  97 E9        29.88F
RYAN FIELD       N/A     59  55  88 E8        29.89F
NOGALES        LGT RAIN  55  52  89 S5        29.91F FOG
SIERRA VISTA   CLOUDY    50  48  93 SE13      29.93F
DOUGLAS        LGT RAIN  51  47  86 SE17      29.96F
SAFFORD        LGT RAIN  48  45  89 SE13      30.01F
$$

AZZ020-021-025-026-031-302100-
SOUTHWEST ARIZONA

CITY           SKY/WX    TMP DP  RH WIND       PRES   REMARKS
YUMA           PTSUNNY   66  54  65 VRB5      29.88F
$$

CAZ031-033-041-043-047-048-061-302100-
SOUTHERN CALIFORNIA

CITY           SKY/WX    TMP DP  RH WIND       PRES   REMARKS
DOWNTOWN L.A.  PTSUNNY   67  50  54 CALM      29.89F
L.A. AIRPORT   CLOUDY    67  48  50 CALM      29.89F
SAN DIEGO      LGT RAIN  63  55  75 NW3       29.93F
BURBANK        PTSUNNY   64  50  60 SE8       29.89F
ONTARIO        CLOUDY    64  46  52 W7        29.90F
RIVERSIDE      CLOUDY    65  45  48 E3        29.90F
PALM SPRINGS   LGT RAIN  63  48  58 CALM      29.93F
EL CENTRO NAS  PTSUNNY   68  49  50 NW7       29.88F
IMPERIAL       CLOUDY    66  52  60 N8        29.88F
BLYTHE         PTSUNNY   65  54  67 VRB6      29.87F
NEEDLES        CLOUDY    63  51  65 NE12      29.87F
$$

NVZ020-UTZ003-302100-
SOUTHERN NEVADA-UTAH

CITY           SKY/WX    TMP DP  RH WIND       PRES   REMARKS
LAS VEGAS      LGT RAIN  53  46  77 NW9G16    29.88F
SALT LAKE CITY CLOUDY    43  35  73 N6        30.06F
$$

NMZ009-TXZ055-302100-
NEW MEXICO-WEST TEXAS

CITY           SKY/WX    TMP DP  RH WIND       PRES   REMARKS
ALBUQUERQUE    FOG       34  33  96 N10       30.17F VSB 1/2 WCI  26
EL PASO        LGT RAIN  46  37  71 E13       30.14F
$$


........................KEY........................
SKY/WX - SKY CONDITION/WEATHER
TMP    - TEMPERATURE IN FAHRENHEIT
DP     - DEW POINT IN FAHRENHEIT
RH     - RELATIVE HUMIDITY IN PERCENT
WIND   - DIRECTION AND SPEED IN MILES PER HOUR (MPH)
VRB    - VARIABLE WIND DIRECTION
PRES   - MEAN SEA LEVEL PRESSURE IN INCHES OF MERCURY
         F - FALLING PRESSURE   R - RISING PRESSURE
         S - STEADY PRESSURE
VSB    - VISIBILITY IN MILES
HX     - HEAT INDEX IN FAHRENHEIT
WCI    - WIND CHILL INDEX IN FAHRENHEIT
TC     - TEMPERATURE IN CELSIUS WHICH IS ALSO KNOWN AS
         TEMPERATURE IN CENTIGRADE
AFB    - AIR FORCE BASE
         LUKE AFB IS LUKE AIR FORCE BASE
         DAVIS-MONTHAN IS DAVIS-MONTHAN AIR FORCE BASE
NAS    - NAVAL AIR STATION
         EL CENTRO NAS IS EL CENTRO NAVAL AIR STATION
N/A    - NOT AVAILABLE


USA.gov is the U.S. government's official web portal to all federal, state and local government web resources and services.